| time (UTC) | temp F | wind direction | speed MPH | gust MPH | rain 1hr in | rain 24hr in | rain mn in | humidity % | barometer mb |
| 20260507025407 | 72 | 254 | 1.0 | 4.0 | 0.00 | 0.00 | 0.00 | 52 | 1016.4 |
| 20260507024905 | 72 | 265 | 1.0 | 4.0 | 0.00 | 0.00 | 0.00 | 51 | 1016.2 |
| 20260507024406 | 73 | 196 | 1.0 | 4.0 | 0.00 | 0.00 | 0.00 | 51 | 1016.3 |
| 20260507023905 | 73 | 298 | 1.0 | 6.0 | 0.00 | 0.00 | 0.00 | 51 | 1016.2 |
| 20260507023405 | 74 | 316 | 1.0 | 6.0 | 0.00 | 0.00 | 0.00 | 50 | 1016.1 |
| 20260507022904 | 74 | 255 | 2.0 | 6.0 | 0.00 | 0.00 | 0.00 | 49 | 1016.1 |
| 20260507022403 | 74 | 149 | 2.0 | 6.0 | 0.00 | 0.00 | 0.00 | 49 | 1016.1 |
| 20260507021903 | 75 | 85 | 2.0 | 5.0 | 0.00 | 0.00 | 0.00 | 48 | 1015.9 |
| 20260507021404 | 75 | 56 | 2.0 | 5.0 | 0.00 | 0.00 | 0.00 | 47 | 1015.9 |
| 20260507020904 | 76 | 212 | 2.0 | 5.0 | 0.00 | 0.00 | 0.00 | 47 | 1015.9 |
| 20260507020406 | 76 | 196 | 2.0 | 6.0 | 0.00 | 0.00 | 0.00 | 46 | 1015.8 |
| 20260507020402 | 77 | 51 | 2.0 | 8.0 | 0.00 | 0.00 | 0.00 | 45 | 1015.8 |
| 20260507020351 | 77 | 221 | 2.0 | 8.0 | 0.00 | 0.00 | 0.00 | 45 | 1015.8 |
| 20260507014903 | 78 | 250 | 2.0 | 8.0 | 0.00 | 0.00 | 0.00 | 44 | 1015.7 |
| 20260507014405 | 78 | 311 | 2.0 | 6.0 | 0.00 | 0.00 | 0.00 | 43 | 1015.6 |
| 20260507013935 | 78 | 241 | 2.0 | 9.0 | 0.00 | 0.00 | 0.00 | 43 | 1015.6 |
| 20260507013910 | 78 | 265 | 2.0 | 7.0 | 0.00 | 0.00 | 0.00 | 43 | 1015.7 |
| 20260507012902 | 79 | 93 | 2.0 | 9.0 | 0.00 | 0.00 | 0.00 | 42 | 1015.5 |
| 20260507012403 | 79 | 228 | 2.0 | 5.0 | 0.00 | 0.00 | 0.00 | 41 | 1015.5 |
| 20260507011936 | 79 | 309 | 2.0 | 8.0 | 0.00 | 0.00 | 0.00 | 39 | 1015.4 |
| 20260507011910 | 79 | 213 | 2.0 | 6.0 | 0.00 | 0.00 | 0.00 | 40 | 1015.5 |
| 20260507010903 | 79 | 291 | 4.0 | 8.0 | 0.00 | 0.00 | 0.00 | 39 | 1015.4 |
| 20260507010405 | 79 | 22 | 2.0 | 10.0 | 0.00 | 0.00 | 0.00 | 38 | 1015.4 |
| 20260507005904 | 79 | 221 | 2.0 | 10.0 | 0.00 | 0.00 | 0.00 | 39 | 1015.4 |
| 20260507005440 | 80 | 212 | 3.0 | 8.0 | 0.00 | 0.00 | 0.00 | 38 | 1015.3 |
| 20260507005410 | 80 | 178 | 3.0 | 8.0 | 0.00 | 0.00 | 0.00 | 38 | 1015.4 |
| 20260507004404 | 80 | 144 | 2.0 | 6.0 | 0.00 | 0.00 | 0.00 | 38 | 1015.3 |
| 20260507003903 | 80 | 137 | 2.0 | 6.0 | 0.00 | 0.00 | 0.00 | 38 | 1015.2 |
| 20260507003403 | 81 | 137 | 2.0 | 6.0 | 0.00 | 0.00 | 0.00 | 37 | 1015.2 |
| 20260507002905 | 81 | 248 | 2.0 | 6.0 | 0.00 | 0.00 | 0.00 | 38 | 1015.3 |
| 20260507002430 | 81 | 248 | 2.0 | 11.0 | 0.00 | 0.00 | 0.00 | 37 | 1015.2 |
| 20260507002408 | 81 | 212 | 1.0 | 5.0 | 0.00 | 0.00 | 0.00 | 38 | 1015.2 |
| 20260507001442 | 81 | 74 | 3.0 | 10.0 | 0.00 | 0.00 | 0.00 | 37 | 1015.1 |
| 20260507001412 | 81 | 232 | 2.0 | 11.0 | 0.00 | 0.00 | 0.00 | 37 | 1015.1 |
| 20260507000402 | 81 | 329 | 2.0 | 10.0 | 0.00 | 0.00 | 0.00 | 37 | 1015.0 |
| 20260506235904 | 81 | 171 | 2.0 | 5.0 | 0.00 | 0.00 | 0.00 | 36 | 1015.0 |
| 20260506235405 | 82 | 270 | 2.0 | 9.0 | 0.00 | 0.00 | 0.00 | 36 | 1015.2 |
| 20260506234956 | 82 | 328 | 2.0 | 7.0 | 0.00 | 0.00 | 0.00 | 36 | 1015.1 |
| 20260506234945 | 82 | 286 | 4.0 | 7.0 | 0.00 | 0.00 | 0.00 | 36 | 1015.1 |
| 20260506234918 | 82 | 338 | 2.0 | 9.0 | 0.00 | 0.00 | 0.00 | 36 | 1015.0 |
| 20260506233404 | 82 | 221 | 2.0 | 15.0 | 0.00 | 0.00 | 0.00 | 36 | 1015.2 |
| 20260506232906 | 81 | 200 | 6.0 | 15.0 | 0.00 | 0.00 | 0.00 | 36 | 1015.2 |
| 20260506232404 | 82 | 187 | 4.0 | 8.0 | 0.00 | 0.00 | 0.00 | 35 | 1015.2 |
| 20260506231904 | 82 | 139 | 2.0 | 7.0 | 0.00 | 0.00 | 0.00 | 35 | 1015.3 |
| 20260506231405 | 82 | 190 | 2.0 | 5.0 | 0.00 | 0.00 | 0.00 | 35 | 1015.4 |
| 20260506230908 | 81 | 51 | 2.0 | 8.0 | 0.00 | 0.00 | 0.00 | 35 | 1015.3 |
| 20260506230405 | 82 | 188 | 4.0 | 8.0 | 0.00 | 0.00 | 0.00 | 34 | 1015.4 |
| 20260506230337 | 82 | 120 | 3.0 | 8.0 | 0.00 | 0.00 | 0.00 | 34 | 1015.3 |
| 20260506225405 | 82 | 146 | 2.0 | 8.0 | 0.00 | 0.00 | 0.00 | 34 | 1015.4 |
| 20260506224952 | 83 | 265 | 2.0 | 9.0 | 0.00 | 0.00 | 0.00 | 33 | 1015.6 |
| 20260506224920 | 82 | 338 | 4.0 | 10.0 | 0.00 | 0.00 | 0.00 | 34 | 1015.4 |
| 20260506224408 | 83 | 202 | 4.0 | 10.0 | 0.00 | 0.00 | 0.00 | 34 | 1015.4 |
| 20260506223442 | 83 | 317 | 3.0 | 6.0 | 0.00 | 0.00 | 0.00 | 33 | 1015.7 |
| 20260506223433 | 83 | 230 | 3.0 | 10.0 | 0.00 | 0.00 | 0.00 | 34 | 1015.6 |
| 20260506223410 | 83 | 241 | 2.0 | 9.0 | 0.00 | 0.00 | 0.00 | 34 | 1015.5 |
| 20260506221902 | 83 | 313 | 4.0 | 10.0 | 0.00 | 0.00 | 0.00 | 34 | 1015.8 |
| 20260506221359 | 83 | 288 | 3.0 | 8.0 | 0.00 | 0.00 | 0.00 | 34 | 1015.7 |
| 20260506220901 | 83 | 68 | 2.0 | 4.0 | 0.00 | 0.00 | 0.00 | 35 | 1015.7 |
| 20260506220400 | 82 | 201 | 2.0 | 5.0 | 0.00 | 0.00 | 0.00 | 35 | 1015.8 |
| 20260506215927 | 82 | 221 | 2.0 | 7.0 | 0.00 | 0.00 | 0.00 | 35 | 1015.9 |
| 20260506215908 | 82 | 341 | 2.0 | 6.0 | 0.00 | 0.00 | 0.00 | 35 | 1015.9 |
| 20260506214900 | 82 | 221 | 2.0 | 8.0 | 0.00 | 0.00 | 0.00 | 35 | 1016.0 |
| 20260506214402 | 82 | 286 | 3.0 | 8.0 | 0.00 | 0.00 | 0.00 | 36 | 1016.1 |
| 20260506213929 | 82 | 257 | 3.0 | 6.0 | 0.00 | 0.00 | 0.00 | 35 | 1016.3 |
| 20260506213907 | 82 | 229 | 2.0 | 7.0 | 0.00 | 0.00 | 0.00 | 34 | 1016.2 |
| 20260506212901 | 82 | 284 | 2.0 | 9.0 | 0.00 | 0.00 | 0.00 | 35 | 1016.4 |
| 20260506212400 | 81 | 164 | 4.0 | 9.0 | 0.00 | 0.00 | 0.00 | 36 | 1016.6 |
| 20260506211900 | 80 | 178 | 3.0 | 7.0 | 0.00 | 0.00 | 0.00 | 37 | 1016.6 |
| 20260506211354 | 80 | 74 | 2.0 | 7.0 | 0.00 | 0.00 | 0.00 | 36 | 1016.7 |
| 20260506210855 | 80 | 298 | 3.0 | 8.0 | 0.00 | 0.00 | 0.00 | 35 | 1016.7 |
| 20260506210354 | 80 | 279 | 4.0 | 8.0 | 0.00 | 0.00 | 0.00 | 37 | 1016.9 |
| 20260506210341 | 79 | 334 | 2.0 | 7.0 | 0.00 | 0.00 | 0.00 | 38 | 1016.9 |
| 20260506205359 | 79 | 227 | 2.0 | 7.0 | 0.00 | 0.00 | 0.00 | 37 | 1016.9 |
| 20260506204936 | 78 | 39 | 2.0 | 8.0 | 0.00 | 0.00 | 0.00 | 38 | 1017.0 |
| 20260506204909 | 78 | 334 | 2.0 | 7.0 | 0.00 | 0.00 | 0.00 | 37 | 1016.7 |
| 20260506204359 | 78 | 32 | 3.0 | 7.0 | 0.00 | 0.00 | 0.00 | 38 | 1017.0 |
| 20260506203355 | 78 | 325 | 3.0 | 9.0 | 0.00 | 0.00 | 0.00 | 38 | 1017.0 |
| 20260506202857 | 79 | 340 | 3.0 | 11.0 | 0.00 | 0.00 | 0.00 | 37 | 1017.1 |
| 20260506202357 | 79 | 328 | 4.0 | 11.0 | 0.00 | 0.00 | 0.00 | 38 | 1017.1 |
| 20260506201854 | 79 | 256 | 2.0 | 5.0 | 0.00 | 0.00 | 0.00 | 38 | 1017.1 |
| 20260506201353 | 78 | 172 | 2.0 | 7.0 | 0.00 | 0.00 | 0.00 | 37 | 1017.2 |
| 20260506200854 | 78 | 111 | 2.0 | 7.0 | 0.00 | 0.00 | 0.00 | 38 | 1017.4 |
| 20260506200354 | 77 | 157 | 2.0 | 6.0 | 0.00 | 0.00 | 0.00 | 39 | 1017.5 |
| 20260506195854 | 76 | 51 | 2.0 | 6.0 | 0.00 | 0.00 | 0.00 | 39 | 1017.5 |
| 20260506195353 | 76 | 38 | 2.0 | 6.0 | 0.00 | 0.00 | 0.00 | 39 | 1017.6 |
| 20260506194852 | 76 | 172 | 4.0 | 9.0 | 0.00 | 0.00 | 0.00 | 39 | 1017.6 |
| 20260506194421 | 77 | 153 | 3.0 | 9.0 | 0.00 | 0.00 | 0.00 | 39 | 1017.8 |
| 20260506194357 | 76 | 185 | 4.0 | 9.0 | 0.00 | 0.00 | 0.00 | 39 | 1017.6 |
| 20260506193350 | 77 | 171 | 3.0 | 9.0 | 0.00 | 0.00 | 0.00 | 39 | 1017.8 |
| 20260506192851 | 76 | 314 | 2.0 | 6.0 | 0.00 | 0.00 | 0.00 | 39 | 1017.8 |
| 20260506192350 | 76 | 232 | 2.0 | 7.0 | 0.00 | 0.00 | 0.00 | 40 | 1017.8 |
| 20260506191852 | 75 | 9 | 4.0 | 7.0 | 0.00 | 0.00 | 0.00 | 41 | 1018.0 |
| 20260506191352 | 75 | 336 | 2.0 | 7.0 | 0.00 | 0.00 | 0.00 | 41 | 1018.1 |
| 20260506190914 | 74 | 332 | 3.0 | 7.0 | 0.00 | 0.00 | 0.00 | 42 | 1018.1 |
| 20260506190854 | 74 | 248 | 2.0 | 7.0 | 0.00 | 0.00 | 0.00 | 42 | 1018.1 |
| 20260506185929 | 74 | 141 | 3.0 | 5.0 | 0.00 | 0.00 | 0.00 | 41 | 1018.3 |
| 20260506185858 | 74 | 41 | 3.0 | 5.0 | 0.00 | 0.00 | 0.00 | 41 | 1018.2 |
| 20260506185348 | 74 | 196 | 2.0 | 5.0 | 0.00 | 0.00 | 0.00 | 41 | 1018.2 |
| 20260506184345 | 73 | 93 | 1.0 | 5.0 | 0.00 | 0.00 | 0.00 | 43 | 1018.4 |
| 20260506183846 | 73 | 146 | 2.0 | 7.0 | 0.00 | 0.00 | 0.00 | 42 | 1018.3 |
| 20260506183345 | 73 | 255 | 3.0 | 7.0 | 0.00 | 0.00 | 0.00 | 42 | 1018.5 |
| 20260506182847 | 73 | 178 | 1.0 | 5.0 | 0.00 | 0.00 | 0.00 | 43 | 1018.5 |
| 20260506182345 | 72 | 265 | 2.0 | 9.0 | 0.00 | 0.00 | 0.00 | 45 | 1018.6 |
| 20260506181924 | 71 | 196 | 2.0 | 7.0 | 0.00 | 0.00 | 0.00 | 44 | 1018.7 |
| 20260506181855 | 71 | 51 | 3.0 | 9.0 | 0.00 | 0.00 | 0.00 | 44 | 1018.6 |
| 20260506180845 | 71 | 57 | 3.0 | 7.0 | 0.00 | 0.00 | 0.00 | 44 | 1018.8 |
| 20260506180341 | 72 | 195 | 3.0 | 6.0 | 0.00 | 0.00 | 0.00 | 43 | 1018.7 |
| 20260506175843 | 71 | 239 | 2.0 | 6.0 | 0.00 | 0.00 | 0.00 | 45 | 1018.7 |
| 20260506175341 | 70 | 59 | 1.0 | 6.0 | 0.00 | 0.00 | 0.00 | 46 | 1018.7 |
| 20260506174914 | 70 | 178 | 1.0 | 4.0 | 0.00 | 0.00 | 0.00 | 46 | 1018.7 |
| 20260506174850 | 70 | 137 | 3.0 | 6.0 | 0.00 | 0.00 | 0.00 | 45 | 1018.7 |
| 20260506173840 | 69 | 26 | 2.0 | 4.0 | 0.00 | 0.00 | 0.00 | 48 | 1018.7 |
| 20260506173341 | 69 | 51 | 1.0 | 5.0 | 0.00 | 0.00 | 0.00 | 47 | 1018.8 |
| 20260506172842 | 69 | 183 | 2.0 | 8.0 | 0.00 | 0.00 | 0.00 | 48 | 1018.7 |
| 20260506172354 | 68 | 196 | 3.0 | 6.0 | 0.00 | 0.00 | 0.00 | 48 | 1018.8 |
| 20260506172341 | 68 | 301 | 3.0 | 8.0 | 0.00 | 0.00 | 0.00 | 48 | 1018.8 |
| 20260506171337 | 68 | 93 | 1.0 | 7.0 | 0.00 | 0.00 | 0.00 | 48 | 1018.8 |
| 20260506170902 | 67 | 212 | 2.0 | 5.0 | 0.00 | 0.00 | 0.00 | 50 | 1018.8 |
| 20260506170842 | 68 | 301 | 1.0 | 7.0 | 0.00 | 0.00 | 0.00 | 50 | 1018.8 |
| 20260506165916 | 67 | 344 | 2.0 | 6.0 | 0.00 | 0.00 | 0.00 | 51 | 1018.8 |
| 20260506165846 | 67 | 162 | 2.0 | 5.0 | 0.00 | 0.00 | 0.00 | 50 | 1018.8 |
| 20260506164834 | 66 | 105 | 2.0 | 6.0 | 0.00 | 0.00 | 0.00 | 52 | 1018.9 |
| 20260506164335 | 66 | 172 | 2.0 | 6.0 | 0.00 | 0.00 | 0.00 | 51 | 1018.8 |
| 20260506163837 | 66 | 133 | 2.0 | 5.0 | 0.00 | 0.00 | 0.00 | 52 | 1018.8 |
| 20260506163336 | 66 | 178 | 2.0 | 4.0 | 0.00 | 0.00 | 0.00 | 52 | 1018.9 |
| 20260506162834 | 66 | 31 | 1.0 | 3.0 | 0.00 | 0.00 | 0.00 | 52 | 1018.9 |
| 20260506162333 | 65 | 93 | 1.0 | 4.0 | 0.00 | 0.00 | 0.00 | 54 | 1018.9 |
| 20260506161833 | 65 | 234 | 2.0 | 3.0 | 0.00 | 0.00 | 0.00 | 54 | 1018.8 |
| 20260506161332 | 65 | 273 | 2.0 | 4.0 | 0.00 | 0.00 | 0.00 | 56 | 1018.8 |
| 20260506160833 | 64 | 291 | 1.0 | 4.0 | 0.00 | 0.00 | 0.00 | 56 | 1018.8 |
| 20260506160332 | 64 | 178 | 1.0 | 3.0 | 0.00 | 0.00 | 0.00 | 57 | 1018.7 |
| 20260506155832 | 63 | 344 | 2.0 | 4.0 | 0.00 | 0.00 | 0.00 | 59 | 1018.7 |
| 20260506155405 | 62 | 232 | 1.0 | 4.0 | 0.00 | 0.00 | 0.00 | 60 | 1018.7 |
| 20260506155354 | 62 | 133 | 2.0 | 4.0 | 0.00 | 0.00 | 0.00 | 60 | 1018.7 |
| 20260506155337 | 63 | 221 | 1.0 | 4.0 | 0.00 | 0.00 | 0.00 | 60 | 1018.7 |
| 20260506153833 | 61 | 24 | 1.0 | 4.0 | 0.00 | 0.00 | 0.00 | 62 | 1018.7 |
| 20260506153333 | 61 | 128 | 2.0 | 4.0 | 0.00 | 0.00 | 0.00 | 62 | 1018.7 |
| 20260506152831 | 60 | 38 | 1.0 | 4.0 | 0.00 | 0.00 | 0.00 | 63 | 1018.7 |
| 20260506152333 | 60 | 146 | 2.0 | 4.0 | 0.00 | 0.00 | 0.00 | 65 | 1018.7 |
| 20260506151831 | 59 | 178 | 2.0 | 4.0 | 0.00 | 0.00 | 0.00 | 65 | 1018.7 |
| 20260506151331 | 59 | 205 | 1.0 | 4.0 | 0.00 | 0.00 | 0.00 | 66 | 1018.7 |
| 20260506150831 | 58 | 157 | 1.0 | 4.0 | 0.00 | 0.00 | 0.00 | 68 | 1018.7 |
| 20260506150332 | 58 | 221 | 1.0 | 4.0 | 0.00 | 0.00 | 0.00 | 70 | 1018.8 |
| 20260506145832 | 57 | 205 | 1.0 | 4.0 | 0.00 | 0.00 | 0.00 | 71 | 1018.7 |
| 20260506145416 | 55 | 239 | 1.0 | 2.0 | 0.00 | 0.00 | 0.00 | 75 | 1018.8 |
| 20260506145408 | 55 | 120 | 1.0 | 3.0 | 0.00 | 0.03 | 0.00 | 77 | 1018.9 |
| 20260506145340 | 56 | 205 | 1.0 | 2.0 | 0.00 | 0.00 | 0.00 | 73 | 1018.8 |
| 20260506143833 | 54 | 111 | 1.0 | 4.0 | 0.00 | 0.05 | 0.00 | 78 | 1018.8 |
| 20260506143332 | 53 | 93 | 1.0 | 4.0 | 0.00 | 0.06 | 0.00 | 80 | 1018.7 |
| 20260506142834 | 53 | 248 | 1.0 | 2.0 | 0.00 | 0.06 | 0.00 | 82 | 1018.7 |
| 20260506142401 | 52 | 26 | 1.0 | 2.0 | 0.00 | 0.07 | 0.00 | 83 | 1018.7 |
| 20260506142337 | 52 | 265 | 1.0 | 2.0 | 0.00 | 0.06 | 0.00 | 83 | 1018.7 |
| 20260506141332 | 51 | 325 | 1.0 | 2.0 | 0.00 | 0.07 | 0.00 | 84 | 1018.7 |
| 20260506140954 | 50 | 309 | 0.0 | 2.0 | 0.00 | 0.07 | 0.00 | 85 | 1018.6 |
| 20260506140859 | 51 | 9 | 1.0 | 2.0 | 0.00 | 0.07 | 0.00 | 84 | 1018.7 |
| 20260506135831 | 50 | 282 | 1.0 | 2.0 | 0.00 | 0.07 | 0.00 | 85 | 1018.6 |
| 20260506135329 | 49 | 26 | 1.0 | 2.0 | 0.00 | 0.07 | 0.00 | 84 | 1018.6 |
| 20260506134830 | 49 | 30 | 1.0 | 2.0 | 0.00 | 0.07 | 0.00 | 84 | 1018.6 |
| 20260506134331 | 49 | 51 | 1.0 | 2.0 | 0.00 | 0.07 | 0.00 | 84 | 1018.5 |
| 20260506133829 | 49 | 44 | 1.0 | 2.0 | 0.00 | 0.07 | 0.00 | 83 | 1018.5 |
| 20260506133331 | 48 | 34 | 0.0 | 1.0 | 0.00 | 0.08 | 0.00 | 83 | 1018.5 |
| 20260506132830 | 48 | 221 | 0.0 | 2.0 | 0.00 | 0.08 | 0.00 | 83 | 1018.3 |
| 20260506132328 | 48 | 72 | 0.0 | 2.0 | 0.00 | 0.08 | 0.00 | 82 | 1018.2 |
| 20260506131853 | 48 | 51 | 0.0 | 1.0 | 0.00 | 0.09 | 0.00 | 81 | 1018.2 |
| 20260506131833 | 48 | 51 | 1.0 | 2.0 | 0.00 | 0.08 | 0.00 | 82 | 1018.2 |
| 20260506130827 | 49 | 34 | 0.0 | 1.0 | 0.00 | 0.10 | 0.00 | 81 | 1018.1 |
| 20260506130326 | 49 | 9 | 0.0 | 1.0 | 0.00 | 0.10 | 0.00 | 81 | 1018.1 |
| 20260506125822 | 49 | 9 | 0.0 | 1.0 | 0.00 | 0.11 | 0.00 | 80 | 1018.1 |
| 20260506125322 | 49 | 9 | 0.0 | 2.0 | 0.00 | 0.13 | 0.00 | 80 | 1017.9 |
| 20260506124822 | 49 | 319 | 1.0 | 2.0 | 0.00 | 0.16 | 0.00 | 80 | 1018.0 |
| 20260506124319 | 49 | 9 | 0.0 | 2.0 | 0.00 | 0.19 | 0.00 | 79 | 1017.9 |
| 20260506123819 | 50 | 26 | 0.0 | 2.0 | 0.00 | 0.20 | 0.00 | 79 | 1017.9 |
| 20260506123316 | 50 | 273 | 1.0 | 1.0 | 0.00 | 0.23 | 0.00 | 79 | 1017.9 |
| 20260506122815 | 50 | 291 | 0.0 | 1.0 | 0.00 | 0.24 | 0.00 | 79 | 1017.8 |
| 20260506122316 | 50 | 221 | 0.0 | 1.0 | 0.00 | 0.25 | 0.00 | 78 | 1017.7 |
| 20260506121816 | 50 | 162 | 0.0 | 3.0 | 0.00 | 0.26 | 0.00 | 78 | 1017.8 |
| 20260506121316 | 50 | 51 | 0.0 | 3.0 | 0.00 | 0.26 | 0.00 | 78 | 1017.7 |
| 20260506120812 | 50 | 64 | 1.0 | 3.0 | 0.00 | 0.26 | 0.00 | 78 | 1017.9 |
| 20260506120311 | 50 | 51 | 1.0 | 3.0 | 0.00 | 0.26 | 0.00 | 78 | 1017.8 |
| 20260506115810 | 50 | 17 | 1.0 | 3.0 | 0.00 | 0.26 | 0.00 | 79 | 1017.8 |
| 20260506115309 | 50 | 93 | 1.0 | 3.0 | 0.00 | 0.26 | 0.00 | 79 | 1017.8 |
| 20260506114808 | 50 | 41 | 2.0 | 3.0 | 0.00 | 0.27 | 0.00 | 79 | 1017.8 |
| 20260506114308 | 50 | 24 | 1.0 | 2.0 | 0.00 | 0.27 | 0.00 | 78 | 1017.8 |
| 20260506113807 | 50 | 9 | 1.0 | 2.0 | 0.00 | 0.27 | 0.00 | 78 | 1017.8 |
| 20260506113309 | 50 | 44 | 1.0 | 2.0 | 0.00 | 0.27 | 0.00 | 78 | 1017.8 |
| 20260506112806 | 50 | 9 | 1.0 | 2.0 | 0.00 | 0.27 | 0.00 | 78 | 1017.8 |
| 20260506112328 | 51 | 22 | 1.0 | 3.0 | 0.00 | 0.27 | 0.00 | 77 | 1017.8 |
| 20260506112308 | 50 | 41 | 1.0 | 3.0 | 0.00 | 0.27 | 0.00 | 77 | 1017.8 |
| 20260506111306 | 51 | 9 | 1.0 | 2.0 | 0.00 | 0.27 | 0.00 | 77 | 1017.7 |
| 20260506110803 | 51 | 26 | 1.0 | 2.0 | 0.00 | 0.27 | 0.00 | 77 | 1017.8 |
| 20260506110304 | 51 | 9 | 1.0 | 2.0 | 0.00 | 0.27 | 0.00 | 77 | 1017.8 |
| 20260506105804 | 51 | 9 | 1.0 | 2.0 | 0.00 | 0.27 | 0.00 | 77 | 1017.8 |
| 20260506105305 | 51 | 51 | 1.0 | 2.0 | 0.00 | 0.27 | 0.00 | 76 | 1017.7 |
| 20260506104807 | 51 | 51 | 0.0 | 1.0 | 0.00 | 0.27 | 0.00 | 76 | 1017.7 |
| 20260506104307 | 51 | 93 | 0.0 | 1.0 | 0.00 | 0.27 | 0.00 | 76 | 1017.8 |
| 20260506103804 | 52 | 93 | 0.0 | 2.0 | 0.00 | 0.27 | 0.00 | 76 | 1017.7 |
| 20260506103349 | 52 | 28 | 2.0 | 3.0 | 0.00 | 0.27 | 0.00 | 76 | 1017.7 |
| 20260506103318 | 52 | 51 | 1.0 | 3.0 | 0.00 | 0.27 | 0.00 | 76 | 1017.7 |
| 20260506102810 | 52 | 46 | 1.0 | 3.0 | 0.00 | 0.27 | 0.00 | 76 | 1017.7 |
| 20260506101803 | 52 | 51 | 1.0 | 3.0 | 0.00 | 0.27 | 0.00 | 76 | 1017.7 |
| 20260506101303 | 52 | 30 | 1.0 | 2.0 | 0.00 | 0.27 | 0.00 | 75 | 1017.7 |
| 20260506100803 | 52 | 57 | 1.0 | 2.0 | 0.00 | 0.27 | 0.00 | 75 | 1017.7 |
| 20260506100301 | 53 | 309 | 1.0 | 2.0 | 0.00 | 0.27 | 0.00 | 75 | 1017.8 |
| 20260506100236 | 53 | 41 | 1.0 | 2.0 | 0.00 | 0.27 | 0.00 | 74 | 1017.7 |
| 20260506095750 | 53 | 9 | 2.0 | 3.0 | 0.00 | 0.27 | 0.00 | 74 | 1017.7 |
| 20260506094802 | 53 | 28 | 1.0 | 3.0 | 0.00 | 0.27 | 0.00 | 74 | 1017.7 |
| 20260506094756 | 53 | 22 | 1.0 | 3.0 | 0.00 | 0.27 | 0.00 | 74 | 1017.8 |
| 20260506093829 | 53 | 22 | 1.0 | 4.0 | 0.00 | 0.27 | 0.00 | 73 | 1017.9 |
| 20260506093758 | 53 | 340 | 2.0 | 3.0 | 0.00 | 0.27 | 0.00 | 73 | 1017.8 |
| 20260506093458 | 53 | 341 | 1.0 | 3.0 | 0.00 | 0.27 | 0.00 | 73 | 1017.8 |
| 20260506092252 | 53 | 15 | 3.0 | 4.0 | 0.00 | 0.27 | 0.00 | 73 | 1017.6 |
| 20260506091821 | 54 | 9 | 1.0 | 3.0 | 0.00 | 0.27 | 0.00 | 73 | 1017.7 |
| 20260506091759 | 54 | 319 | 2.0 | 3.0 | 0.00 | 0.27 | 0.00 | 73 | 1017.7 |
| 20260506090750 | 54 | 51 | 2.0 | 3.0 | 0.00 | 0.27 | 0.00 | 73 | 1017.6 |
| 20260506090253 | 54 | 30 | 1.0 | 2.0 | 0.00 | 0.27 | 0.00 | 72 | 1017.8 |
| 20260506085743 | 54 | 212 | 0.0 | 1.0 | 0.00 | 0.27 | 0.00 | 72 | 1017.8 |
| 20260506085243 | 54 | 178 | 0.0 | 2.0 | 0.00 | 0.27 | 0.00 | 71 | 1017.9 |
| 20260506084742 | 55 | 9 | 0.0 | 3.0 | 0.00 | 0.27 | 0.00 | 71 | 1017.9 |
| 20260506084241 | 55 | 338 | 2.0 | 4.0 | 0.00 | 0.27 | 0.00 | 72 | 1017.9 |
| 20260506083737 | 55 | 16 | 2.0 | 5.0 | 0.00 | 0.27 | 0.00 | 72 | 1017.9 |
| 20260506083234 | 55 | 26 | 3.0 | 5.0 | 0.00 | 0.27 | 0.00 | 72 | 1018.0 |
| 20260506082757 | 55 | 32 | 2.0 | 4.0 | 0.00 | 0.27 | 0.00 | 72 | 1018.1 |
| 20260506082740 | 55 | 18 | 2.0 | 5.0 | 0.00 | 0.27 | 0.00 | 72 | 1018.1 |
| 20260506081735 | 55 | 22 | 1.0 | 5.0 | 0.00 | 0.27 | 0.00 | 72 | 1018.1 |
| 20260506081234 | 55 | 38 | 2.0 | 6.0 | 0.00 | 0.27 | 0.00 | 72 | 1018.2 |
| 20260506080734 | 54 | 41 | 2.0 | 6.0 | 0.00 | 0.27 | 0.00 | 73 | 1018.1 |
| 20260506080233 | 54 | 24 | 2.0 | 5.0 | 0.00 | 0.27 | 0.00 | 72 | 1018.1 |
| 20260506073230 | 55 | 24 | 2.0 | 3.0 | 0.00 | 0.27 | 0.00 | 72 | 1018.2 |
| 20260506072751 | 55 | 26 | 1.0 | 3.0 | 0.00 | 0.27 | 0.00 | 72 | 1018.3 |
| 20260506072731 | 55 | 344 | 2.0 | 3.0 | 0.00 | 0.27 | 0.00 | 72 | 1018.3 |
| 20260506071728 | 55 | 22 | 1.0 | 4.0 | 0.00 | 0.27 | 0.00 | 71 | 1018.3 |
| 20260506071229 | 55 | 30 | 2.0 | 4.0 | 0.00 | 0.27 | 0.00 | 71 | 1018.3 |
| 20260506070726 | 55 | 15 | 2.0 | 4.0 | 0.00 | 0.27 | 0.00 | 71 | 1018.2 |
| 20260506070229 | 55 | 344 | 1.0 | 3.0 | 0.00 | 0.27 | 0.00 | 70 | 1018.2 |
| 20260506062220 | 56 | 9 | 2.0 | 4.0 | 0.00 | 0.27 | 0.27 | 69 | 1017.8 |
| 20260506061719 | 56 | 342 | 2.0 | 4.0 | 0.00 | 0.27 | 0.27 | 69 | 1017.7 |
| 20260506061221 | 56 | 15 | 1.0 | 3.0 | 0.00 | 0.27 | 0.27 | 69 | 1017.7 |
| 20260506060721 | 56 | 26 | 2.0 | 2.0 | 0.00 | 0.27 | 0.27 | 68 | 1017.7 |
| 20260506060220 | 56 | 9 | 1.0 | 2.0 | 0.00 | 0.27 | 0.27 | 68 | 1017.6 |
| 20260506050715 | 59 | 292 | 0.0 | 3.0 | 0.00 | 0.27 | 0.27 | 61 | 1017.2 |
| 20260506050216 | 59 | 279 | 1.0 | 2.0 | 0.00 | 0.27 | 0.27 | 60 | 1017.0 |
| 20260506044212 | 60 | 19 | 1.0 | 8.0 | 0.00 | 0.27 | 0.27 | 58 | 1016.6 |
| 20260506043714 | 60 | 316 | 2.0 | 6.0 | 0.00 | 0.27 | 0.27 | 58 | 1016.5 |
| 20260506043214 | 60 | 257 | 3.0 | 4.0 | 0.00 | 0.27 | 0.27 | 57 | 1016.5 |
| 20260506042713 | 60 | 293 | 2.0 | 4.0 | 0.00 | 0.27 | 0.27 | 57 | 1016.4 |
| 20260506042213 | 61 | 275 | 2.0 | 7.0 | 0.00 | 0.27 | 0.27 | 57 | 1016.4 |
| 20260506041709 | 61 | 229 | 2.0 | 7.0 | 0.00 | 0.27 | 0.27 | 56 | 1016.3 |
| 20260506041210 | 61 | 68 | 2.0 | 6.0 | 0.00 | 0.27 | 0.27 | 56 | 1016.2 |
| 20260506040707 | 61 | 230 | 2.0 | 6.0 | 0.00 | 0.27 | 0.27 | 56 | 1016.2 |
| 20260506040414 | 61 | 261 | 2.0 | 6.0 | 0.00 | 0.27 | 0.27 | 55 | 1016.0 |
| 20260506040255 | 61 | 309 | 1.0 | 5.0 | 0.00 | 0.27 | 0.27 | 56 | 1016.1 |
| 20260506035711 | 61 | 325 | 2.0 | 4.0 | 0.00 | 0.27 | 0.27 | 55 | 1016.1 |
| 20260506034757 | 62 | 250 | 3.0 | 7.0 | 0.00 | 0.27 | 0.27 | 54 | 1015.9 |
| 20260506034722 | 61 | 9 | 2.0 | 6.0 | 0.00 | 0.27 | 0.27 | 55 | 1016.0 |
| 20260506034211 | 62 | 265 | 2.0 | 6.0 | 0.00 | 0.27 | 0.27 | 55 | 1015.9 |
| 20260506033205 | 62 | 282 | 1.0 | 7.0 | 0.00 | 0.27 | 0.27 | 54 | 1015.6 |
| 20260506032706 | 62 | 284 | 2.0 | 4.0 | 0.00 | 0.27 | 0.27 | 54 | 1015.6 |
| 20260506032702 | 63 | 286 | 2.0 | 6.0 | 0.00 | 0.27 | 0.27 | 51 | 1014.8 |
| 20260506032652 | 62 | 9 | 1.0 | 6.0 | 0.00 | 0.27 | 0.27 | 53 | 1015.3 |
| 20260506032357 | 62 | 68 | 2.0 | 5.0 | 0.00 | 0.27 | 0.27 | 54 | 1015.5 |
| 20260506032123 | 62 | 187 | 1.0 | 5.0 | 0.00 | 0.27 | 0.27 | 53 | 1015.2 |
| 20260506031847 | 62 | 196 | 2.0 | 5.0 | 0.00 | 0.27 | 0.27 | 54 | 1015.5 |
| 20260506031337 | 62 | 257 | 1.0 | 6.0 | 0.00 | 0.27 | 0.27 | 54 | 1015.5 |
| 20260506030826 | 62 | 218 | 2.0 | 6.0 | 0.00 | 0.27 | 0.27 | 54 | 1015.4 |
| 20260506025445 | 63 | 309 | 2.0 | 7.0 | 0.00 | 0.27 | 0.27 | 53 | 1015.0 |